Weather in Chesnokovka

Russia / Orenburg Oblast     51°39′25″N   54°05′11″E
temp.,
°C
wind,
m/s
gust,
m/s
humid.,
%
clouds,
%
prec.,
mm/h
press.,
hPa
HPBL,
m
3 march, wed
wed323:00−4sw91595100 2.9 1009838
02:00−3sw81496100 1.5 1007743
05:00−2sw71397100 3.3 1005684
08:00−2sw61197100 1.1 1003554
11:00−1sw6997100 2.1 1004540
14:000wsw5899100 0.5 1003547
17:000wsw5799100 1.3 1004427
20:00−2w5996100 0.6 1004299
4 march, thu
thu423:00−4wnw5109493 0.8 1007413
02:00−11wnw459359 0.0 100791
05:00−12wnw479749 0.0 1010106
08:00−14w349759 0.0 101161
11:00−11wsw5109662 0.0 1012281
14:00−6sw7139198 0.0 1011554
17:00−5sw9159499 0.3 1010817
20:00−4wsw91593100 0.4 1009888
5 march, fri
fri523:00−2sw101695100 0.8 1008787
02:00−1wsw101692100 0.3 1008835
05:00−3sw9169198 0.4 1008625
08:00−3sw91693100 0.0 1009598
11:00−2sw101794100 0.0 1008698
14:000sw111798100 0.9 10071036
17:00+1sw101798100 3.3 1007848
20:00+1sw101798100 1.1 1007838
6 march, sat
sat623:00+1wsw81598100 2.1 1010708
02:00−5nw4792100 0.2 1012219
05:00−8nnw2393100 0.2 101430
08:00−9ne2292100 0.0 101425
11:00−6e4596100 0.3 1013222
14:00−5e71096100 3.6 1009373
17:00−4e4597100 8.3 1007156
20:00−1wsw2799100 3.2 1005234
7 march, sun
sun723:00−7nnw5993100 4.1 1006238
02:00−11nw51194100 0.0 1009236
05:00−13nw349495 0.0 101276
08:00−14w339598 0.0 101435
11:00−13wnw369498 0.0 1015245
14:00−11wnw478855 0.0 1017387
17:00−12w468927 0.0 1017374
20:00−17wsw33940 0.0 101822